OAL929 FLKK-HTDA

Flight info

Callsign OAL929
Flight time 1h 55m
Altitude 38000
Route OKDAR DCT APGIK UL431 ODGAT
Aircraft B738/M-V/N

Departure

Time 2026-05-05 16:31
Airport Kenneth Kaunda International Airport (FLKK)

Arrival

Time 2026-05-05 18:26
Airport Julius Nyerere International Airport (HTDA)
Time Latitude Longitude Altitude Speed Heading
2026-05-05 16:22 -15.33133 28.43220 3787 ft 0 kts
2026-05-05 16:28 -15.33091 28.43241 3793 ft 11 kts 38°
2026-05-05 16:29 -15.33010 28.43283 3787 ft 17 kts 11°
2026-05-05 16:29 -15.32949 28.43295 3789 ft 0 kts 16°
2026-05-05 16:30 -15.32923 28.43314 3792 ft 9 kts 52°
2026-05-05 16:30 -15.32929 28.43606 3787 ft 79 kts 95°
2026-05-05 16:31 -15.33003 28.44424 3775 ft 147 kts 95°
2026-05-05 16:31 -15.33112 28.45647 4060 ft 175 kts 95°
2026-05-05 16:31 -15.33232 28.46834 5134 ft 167 kts 91°
2026-05-05 16:31 -15.33005 28.48061 5659 ft 187 kts 65°
2026-05-05 16:32 -15.32077 28.49123 5873 ft 214 kts 32°
2026-05-05 16:32 -15.30742 28.49920 6043 ft 235 kts 32°
2026-05-05 16:32 -15.29279 28.50845 6221 ft 257 kts 32°
2026-05-05 16:32 -15.27695 28.51859 6519 ft 276 kts 32°
2026-05-05 16:33 -15.26040 28.52919 7159 ft 282 kts 32°
2026-05-05 16:33 -15.24369 28.53988 7929 ft 283 kts 32°
2026-05-05 16:33 -15.22683 28.55066 8660 ft 287 kts 31°
2026-05-05 16:33 -15.20976 28.56157 9371 ft 291 kts 31°
2026-05-05 16:34 -15.19241 28.57266 10077 ft 295 kts 31°
2026-05-05 16:34 -15.17474 28.58394 10555 ft 307 kts 31°
2026-05-05 16:34 -15.15580 28.59603 10691 ft 331 kts 31°
2026-05-05 16:34 -15.13560 28.60893 10840 ft 351 kts 31°
2026-05-05 16:35 -15.11428 28.62253 11008 ft 368 kts 31°
2026-05-05 16:35 -15.09240 28.63651 11089 ft 371 kts 31°
2026-05-05 16:35 -15.07041 28.65056 11086 ft 371 kts 31°
2026-05-05 16:35 -15.04842 28.66460 11097 ft 372 kts 31°
2026-05-05 16:36 -15.02639 28.67865 11096 ft 371 kts 31°
2026-05-05 16:36 -15.00481 28.69329 11067 ft 372 kts 39°
2026-05-05 16:36 -14.98860 28.71421 11248 ft 377 kts 61°
2026-05-05 16:36 -14.97631 28.73810 11959 ft 376 kts 59°
2026-05-05 16:37 -14.96313 28.76155 12558 ft 378 kts 58°
2026-05-05 16:37 -14.94949 28.78498 13096 ft 382 kts 58°
2026-05-05 16:37 -14.93571 28.80853 13653 ft 384 kts 57°
2026-05-05 16:37 -14.92186 28.83226 14162 ft 387 kts 57°
2026-05-05 16:38 -14.90798 28.85619 14636 ft 389 kts 57°
2026-05-05 16:38 -14.89406 28.88029 15098 ft 392 kts 57°
2026-05-05 16:38 -14.87988 28.90491 15559 ft 395 kts 57°
2026-05-05 16:38 -14.86584 28.92934 16015 ft 398 kts 57°
2026-05-05 16:39 -14.85167 28.95399 16462 ft 400 kts 57°
2026-05-05 16:39 -14.83746 28.97873 16903 ft 403 kts 57°
2026-05-05 16:39 -14.82304 29.00383 17362 ft 406 kts 57°
2026-05-05 16:39 -14.80863 29.02889 17772 ft 409 kts 57°
2026-05-05 16:40 -14.79407 29.05421 18192 ft 411 kts 57°
2026-05-05 16:40 -14.77929 29.07990 18573 ft 414 kts 57°
2026-05-05 16:40 -14.76455 29.10551 18908 ft 417 kts 57°
2026-05-05 16:40 -14.74969 29.13133 19221 ft 421 kts 57°
2026-05-05 16:41 -14.73463 29.15749 19541 ft 424 kts 57°
2026-05-05 16:41 -14.71955 29.18367 19864 ft 427 kts 57°
2026-05-05 16:41 -14.70435 29.21006 20177 ft 430 kts 58°
2026-05-05 16:41 -14.68905 29.23660 20483 ft 433 kts 58°
2026-05-05 16:42 -14.67355 29.26349 20784 ft 436 kts 58°
2026-05-05 16:42 -14.65804 29.29039 21073 ft 439 kts 58°
2026-05-05 16:42 -14.64239 29.31752 21347 ft 442 kts 58°
2026-05-05 16:42 -14.62636 29.34478 21659 ft 444 kts 56°
2026-05-05 16:43 -14.60878 29.37116 21943 ft 446 kts 52°
2026-05-05 16:43 -14.59025 29.39694 22221 ft 449 kts 51°
2026-05-05 16:43 -14.57127 29.42273 22481 ft 451 kts 51°
2026-05-05 16:43 -14.55217 29.44869 22741 ft 454 kts 51°
2026-05-05 16:44 -14.53317 29.47476 23001 ft 457 kts 52°
2026-05-05 16:44 -14.51417 29.50108 23256 ft 459 kts 52°
2026-05-05 16:44 -14.49528 29.52745 23497 ft 462 kts 52°
2026-05-05 16:44 -14.47613 29.55431 23724 ft 464 kts 52°
2026-05-05 16:45 -14.45701 29.58118 23937 ft 466 kts 52°
2026-05-05 16:45 -14.43786 29.60812 24158 ft 467 kts 52°
2026-05-05 16:45 -14.41857 29.63525 24388 ft 469 kts 52°
2026-05-05 16:45 -14.39928 29.66235 24609 ft 470 kts 52°
2026-05-05 16:46 -14.37995 29.68950 24812 ft 472 kts 52°
2026-05-05 16:46 -14.36025 29.71715 25019 ft 473 kts 52°
2026-05-05 16:46 -14.34076 29.74449 25222 ft 475 kts 52°
2026-05-05 16:46 -14.32122 29.77189 25430 ft 476 kts 52°
2026-05-05 16:47 -14.30156 29.79945 25618 ft 477 kts 52°
2026-05-05 16:47 -14.28183 29.82710 25813 ft 479 kts 52°
2026-05-05 16:47 -14.26208 29.85475 25998 ft 480 kts 52°
2026-05-05 16:47 -14.24226 29.88251 26188 ft 481 kts 52°
2026-05-05 16:48 -14.22237 29.91036 26371 ft 483 kts 52°
2026-05-05 16:48 -14.20245 29.93823 26551 ft 484 kts 52°
2026-05-05 16:48 -14.18243 29.96624 26736 ft 485 kts 52°
2026-05-05 16:48 -14.16237 29.99429 26901 ft 487 kts 52°
2026-05-05 16:49 -14.14225 30.02242 27090 ft 488 kts 52°
2026-05-05 16:49 -14.12211 30.05056 27252 ft 489 kts 52°
2026-05-05 16:49 -14.10188 30.07883 27424 ft 490 kts 52°
2026-05-05 16:49 -14.08179 30.10688 27575 ft 492 kts 52°
2026-05-05 16:50 -14.06122 30.13560 27743 ft 493 kts 52°
2026-05-05 16:50 -14.04112 30.16365 27891 ft 494 kts 52°
2026-05-05 16:50 -14.02041 30.19254 28049 ft 495 kts 52°
2026-05-05 16:50 -14.00000 30.22101 28196 ft 496 kts 52°
2026-05-05 16:51 -13.97952 30.24957 28368 ft 497 kts 52°
2026-05-05 16:51 -13.95908 30.27806 28603 ft 496 kts 52°
2026-05-05 16:51 -13.93867 30.30649 28864 ft 494 kts 52°
2026-05-05 16:51 -13.91828 30.33490 29094 ft 494 kts 52°
2026-05-05 16:52 -13.89780 30.36342 29304 ft 494 kts 52°
2026-05-05 16:52 -13.87743 30.39178 29529 ft 494 kts 52°
2026-05-05 16:52 -13.85707 30.42012 29775 ft 493 kts 52°
2026-05-05 16:52 -13.83653 30.44869 30015 ft 492 kts 52°
2026-05-05 16:53 -13.81620 30.47692 30216 ft 492 kts 51°
2026-05-05 16:53 -13.79545 30.50493 30418 ft 491 kts 50°
2026-05-05 16:53 -13.77447 30.53251 30636 ft 490 kts 50°
2026-05-05 16:53 -13.76043 30.55081 30794 ft 489 kts 50°
2026-05-05 16:54 -13.73936 30.57818 31026 ft 489 kts 50°
2026-05-05 16:54 -13.71835 30.60552 31256 ft 488 kts 50°
2026-05-05 16:54 -13.69710 30.63327 31495 ft 487 kts 50°
2026-05-05 16:54 -13.67642 30.66033 31728 ft 487 kts 50°
2026-05-05 16:55 -13.64865 30.69677 32040 ft 486 kts 50°
2026-05-05 16:55 -13.63459 30.71522 32201 ft 485 kts 50°
2026-05-05 16:55 -13.61375 30.74258 32451 ft 484 kts 50°
2026-05-05 16:55 -13.59292 30.76992 32691 ft 484 kts 50°
2026-05-05 16:56 -13.57243 30.79680 32929 ft 483 kts 50°
2026-05-05 16:56 -13.55164 30.82404 33177 ft 483 kts 50°
2026-05-05 16:56 -13.53099 30.85111 33438 ft 482 kts 50°
2026-05-05 16:56 -13.51026 30.87827 33689 ft 481 kts 50°
2026-05-05 16:57 -13.48965 30.90525 33943 ft 480 kts 49°
2026-05-05 16:57 -13.46908 30.93219 34160 ft 480 kts 49°
2026-05-05 16:57 -13.44852 30.95910 34373 ft 479 kts 49°
2026-05-05 16:57 -13.42781 30.98619 34575 ft 479 kts 49°
2026-05-05 16:58 -13.40728 31.01305 34784 ft 478 kts 49°
2026-05-05 16:58 -13.38685 31.03976 35011 ft 477 kts 49°
2026-05-05 16:58 -13.36647 31.06641 35241 ft 476 kts 49°
2026-05-05 16:58 -13.34602 31.09312 35425 ft 476 kts 49°
2026-05-05 16:59 -13.32530 31.12019 35603 ft 476 kts 49°
2026-05-05 16:59 -13.30493 31.14680 35819 ft 474 kts 49°
2026-05-05 16:59 -13.28463 31.17330 36050 ft 473 kts 49°
2026-05-05 16:59 -13.26437 31.19976 36247 ft 472 kts 49°
2026-05-05 17:00 -13.24408 31.22623 36393 ft 473 kts 49°
2026-05-05 17:00 -13.22379 31.25270 36544 ft 473 kts 49°
2026-05-05 17:00 -13.20323 31.27951 36737 ft 472 kts 49°
2026-05-05 17:00 -13.18322 31.30562 36959 ft 470 kts 49°
2026-05-05 17:01 -13.16307 31.33188 37152 ft 469 kts 49°
2026-05-05 17:01 -13.14272 31.35865 37277 ft 470 kts 51°
2026-05-05 17:01 -13.12356 31.38573 37415 ft 471 kts 53°
2026-05-05 17:01 -13.10506 31.41312 37613 ft 470 kts 53°
2026-05-05 17:02 -13.08642 31.44110 37844 ft 468 kts 53°
2026-05-05 17:02 -13.06808 31.46855 37979 ft 467 kts 53°
2026-05-05 17:02 -13.03085 31.52363 37982 ft 470 kts 53°
2026-05-05 17:03 -12.99350 31.57843 37952 ft 469 kts 53°
2026-05-05 17:03 -12.95602 31.63337 37934 ft 468 kts 53°
2026-05-05 17:04 -12.91822 31.68712 37917 ft 467 kts 50°
2026-05-05 17:04 -12.87731 31.73828 37941 ft 465 kts 47°
2026-05-05 17:05 -12.83575 31.78896 37958 ft 464 kts 48°
2026-05-05 17:05 -12.79442 31.83993 37965 ft 463 kts 48°
2026-05-05 17:06 -12.75351 31.89082 37952 ft 463 kts 48°
2026-05-05 17:06 -12.71235 31.94212 37939 ft 463 kts 48°
2026-05-05 17:07 -12.67154 31.99295 37928 ft 464 kts 48°
2026-05-05 17:07 -12.63056 32.04395 37929 ft 464 kts 48°
2026-05-05 17:08 -12.58966 32.09481 37946 ft 463 kts 48°
2026-05-05 17:08 -12.54863 32.14580 37944 ft 464 kts 48°
2026-05-05 17:09 -12.50767 32.19668 37931 ft 465 kts 48°
2026-05-05 17:09 -12.46654 32.24775 37933 ft 465 kts 48°
2026-05-05 17:10 -12.42531 32.29889 37956 ft 465 kts 48°
2026-05-05 17:10 -12.38417 32.34993 37953 ft 465 kts 48°
2026-05-05 17:11 -12.34297 32.40099 37941 ft 465 kts 48°
2026-05-05 17:11 -12.30179 32.45201 37952 ft 465 kts 48°
2026-05-05 17:12 -12.26062 32.50299 37963 ft 464 kts 48°
2026-05-05 17:12 -12.21946 32.55393 37945 ft 465 kts 48°
2026-05-05 17:13 -12.17833 32.60479 37971 ft 463 kts 48°
2026-05-05 17:13 -12.13719 32.65550 37958 ft 464 kts 48°
2026-05-05 17:14 -12.09604 32.70618 37981 ft 463 kts 48°
2026-05-05 17:14 -12.05496 32.75676 37967 ft 463 kts 48°
2026-05-05 17:15 -12.01389 32.80735 37993 ft 462 kts 48°
2026-05-05 17:15 -11.97283 32.85786 37975 ft 462 kts 48°
2026-05-05 17:16 -11.93181 32.90833 38002 ft 462 kts 48°
2026-05-05 17:16 -11.89078 32.95877 37982 ft 462 kts 48°
2026-05-05 17:17 -11.84975 33.00918 38012 ft 461 kts 48°
2026-05-05 17:17 -11.80868 33.05963 37998 ft 462 kts 48°
2026-05-05 17:18 -11.76790 33.10968 38016 ft 461 kts 48°
2026-05-05 17:18 -11.72684 33.16006 38007 ft 462 kts 48°
2026-05-05 17:19 -11.68580 33.21040 38025 ft 461 kts 48°
2026-05-05 17:19 -11.64470 33.26078 38016 ft 462 kts 48°
2026-05-05 17:20 -11.60362 33.31112 38039 ft 462 kts 48°
2026-05-05 17:20 -11.56304 33.36196 38025 ft 463 kts 49°
2026-05-05 17:21 -11.52319 33.41347 38042 ft 463 kts 50°
2026-05-05 17:22 -11.46327 33.49063 38030 ft 463 kts 49°
2026-05-05 17:22 -11.42314 33.54205 38047 ft 463 kts 49°
2026-05-05 17:23 -11.38290 33.59359 38036 ft 464 kts 49°
2026-05-05 17:23 -11.34282 33.64488 38046 ft 464 kts 49°
2026-05-05 17:24 -11.30271 33.69616 38053 ft 464 kts 49°
2026-05-05 17:24 -11.26235 33.74774 38048 ft 464 kts 50°
2026-05-05 17:25 -11.22235 33.79885 38054 ft 464 kts 50°
2026-05-05 17:25 -11.18223 33.85010 38050 ft 463 kts 50°
2026-05-05 17:26 -11.14184 33.90166 38056 ft 463 kts 50°
2026-05-05 17:26 -11.10192 33.95261 38047 ft 463 kts 50°
2026-05-05 17:27 -11.06172 34.00387 38058 ft 463 kts 50°
2026-05-05 17:27 -11.02124 34.05547 38027 ft 464 kts 50°
2026-05-05 17:28 -10.98131 34.10635 38043 ft 463 kts 50°
2026-05-05 17:28 -10.94088 34.15785 38026 ft 463 kts 50°
2026-05-05 17:29 -10.90071 34.20898 38013 ft 463 kts 50°
2026-05-05 17:29 -10.86057 34.26005 38007 ft 463 kts 50°
2026-05-05 17:30 -10.82048 34.31104 37996 ft 462 kts 50°
2026-05-05 17:30 -10.78032 34.36211 38000 ft 462 kts 50°
2026-05-05 17:31 -10.74026 34.41300 37983 ft 462 kts 50°
2026-05-05 17:31 -10.69946 34.46382 37986 ft 461 kts 49°
2026-05-05 17:32 -10.65882 34.51394 37982 ft 461 kts 49°
2026-05-05 17:32 -10.61785 34.56458 37985 ft 461 kts 50°
2026-05-05 17:33 -10.57741 34.61467 37996 ft 462 kts 50°
2026-05-05 17:33 -10.53653 34.66555 37993 ft 463 kts 50°
2026-05-05 17:34 -10.49629 34.71643 38009 ft 463 kts 50°
2026-05-05 17:34 -10.45592 34.76758 38006 ft 464 kts 51°
2026-05-05 17:35 -10.41559 34.81859 38021 ft 464 kts 51°
2026-05-05 17:35 -10.37515 34.86966 38020 ft 465 kts 51°
2026-05-05 17:36 -10.33457 34.92084 38034 ft 466 kts 51°
2026-05-05 17:36 -10.29391 34.97211 38026 ft 466 kts 51°
2026-05-05 17:37 -10.25321 35.02340 38047 ft 466 kts 51°
2026-05-05 17:37 -10.21941 35.06598 38036 ft 466 kts 51°
2026-05-05 17:38 -10.17863 35.11734 38041 ft 465 kts 51°
2026-05-05 17:38 -10.13804 35.16843 38041 ft 464 kts 51°
2026-05-05 17:39 -10.09752 35.21941 38038 ft 464 kts 51°
2026-05-05 17:39 -10.05713 35.27020 38046 ft 463 kts 51°
2026-05-05 17:40 -10.01672 35.32100 38034 ft 462 kts 51°
2026-05-05 17:40 -9.97654 35.37149 38043 ft 461 kts 51°
2026-05-05 17:41 -9.93637 35.42194 38037 ft 460 kts 51°
2026-05-05 17:41 -9.89595 35.47268 38046 ft 459 kts 51°
2026-05-05 17:42 -9.85581 35.52306 38043 ft 459 kts 51°
2026-05-05 17:42 -9.81592 35.57309 38041 ft 459 kts 51°
2026-05-05 17:43 -9.77575 35.62346 38048 ft 459 kts 51°
2026-05-05 17:43 -9.73535 35.67409 38031 ft 460 kts 51°
2026-05-05 17:44 -9.69532 35.72424 38037 ft 460 kts 51°
2026-05-05 17:44 -9.65494 35.77481 38032 ft 460 kts 51°
2026-05-05 17:45 -9.61470 35.82517 38026 ft 461 kts 51°
2026-05-05 17:45 -9.57443 35.87555 38024 ft 461 kts 51°
2026-05-05 17:46 -9.53389 35.92626 38012 ft 461 kts 51°
2026-05-05 17:46 -9.49350 35.97675 38029 ft 461 kts 51°
2026-05-05 17:47 -9.45321 36.02709 38015 ft 461 kts 51°
2026-05-05 17:47 -9.41286 36.07750 38020 ft 461 kts 51°
2026-05-05 17:48 -9.37248 36.12792 38022 ft 461 kts 51°
2026-05-05 17:48 -9.33218 36.17821 38013 ft 461 kts 51°
2026-05-05 17:49 -9.29160 36.22883 38023 ft 460 kts 51°
2026-05-05 17:49 -9.25127 36.27913 38015 ft 460 kts 51°
2026-05-05 17:50 -9.21102 36.32930 38024 ft 459 kts 51°
2026-05-05 17:50 -9.17073 36.37950 38015 ft 459 kts 51°
2026-05-05 17:51 -9.13054 36.42956 38023 ft 459 kts 51°
2026-05-05 17:51 -9.09036 36.47959 38021 ft 459 kts 51°
2026-05-05 17:52 -9.05004 36.52977 38018 ft 459 kts 51°
2026-05-05 17:52 -9.00983 36.57979 38025 ft 459 kts 51°
2026-05-05 17:53 -8.96943 36.63003 38014 ft 459 kts 51°
2026-05-05 17:53 -8.92909 36.68019 38027 ft 459 kts 51°
2026-05-05 17:54 -8.88864 36.73044 38012 ft 460 kts 51°
2026-05-05 17:54 -8.84836 36.78048 38015 ft 459 kts 51°
2026-05-05 17:55 -8.80814 36.83042 38015 ft 459 kts 51°
2026-05-05 17:55 -8.76792 36.88035 38006 ft 459 kts 51°
2026-05-05 17:56 -8.72753 36.93046 38011 ft 458 kts 51°
2026-05-05 17:56 -8.68716 36.98052 37993 ft 458 kts 51°
2026-05-05 17:57 -8.64715 37.03012 38002 ft 457 kts 51°
2026-05-05 17:57 -8.60699 37.07989 37992 ft 457 kts 51°
2026-05-05 17:58 -8.56681 37.12967 37992 ft 457 kts 51°
2026-05-05 17:58 -8.52668 37.17937 37991 ft 456 kts 51°
2026-05-05 17:59 -8.48655 37.22905 37984 ft 456 kts 51°
2026-05-05 17:59 -8.44647 37.27865 37991 ft 456 kts 51°
2026-05-05 18:00 -8.40634 37.32829 37981 ft 456 kts 51°
2026-05-05 18:00 -8.36639 37.37770 37988 ft 456 kts 51°
2026-05-05 18:01 -8.32613 37.42747 37991 ft 455 kts 51°
2026-05-05 18:01 -8.28609 37.47695 37734 ft 459 kts 51°
2026-05-05 18:01 -8.26583 37.50198 37021 ft 464 kts 51°
2026-05-05 18:02 -8.24558 37.52700 36651 ft 457 kts 51°
2026-05-05 18:02 -8.22515 37.55222 35845 ft 462 kts 51°
2026-05-05 18:02 -8.20493 37.57719 35286 ft 458 kts 51°
2026-05-05 18:02 -8.18482 37.60202 34662 ft 460 kts 51°
2026-05-05 18:03 -8.16458 37.62699 33759 ft 467 kts 51°
2026-05-05 18:03 -8.14406 37.65232 33272 ft 461 kts 51°
2026-05-05 18:03 -8.12357 37.67761 32372 ft 467 kts 51°
2026-05-05 18:03 -8.10307 37.70290 31536 ft 468 kts 51°
2026-05-05 18:04 -8.08251 37.72826 31025 ft 464 kts 51°
2026-05-05 18:04 -8.06194 37.75364 30226 ft 468 kts 51°
2026-05-05 18:04 -8.04152 37.77881 29502 ft 467 kts 51°
2026-05-05 18:04 -8.02101 37.80409 29121 ft 457 kts 51°
2026-05-05 18:05 -8.00086 37.82894 28493 ft 455 kts 51°
2026-05-05 18:05 -7.98099 37.85343 27867 ft 452 kts 51°
2026-05-05 18:05 -7.96113 37.87792 27411 ft 446 kts 51°
2026-05-05 18:05 -7.94147 37.90216 26821 ft 444 kts 52°
2026-05-05 18:06 -7.92223 37.92620 26332 ft 439 kts 52°
2026-05-05 18:06 -7.90964 37.94205 25979 ft 437 kts 52°
2026-05-05 18:06 -7.88454 37.97380 25282 ft 433 kts 52°
2026-05-05 18:06 -7.86553 37.99785 24725 ft 431 kts 52°
2026-05-05 18:07 -7.84713 38.02111 24195 ft 429 kts 52°
2026-05-05 18:07 -7.82848 38.04467 23656 ft 427 kts 52°
2026-05-05 18:07 -7.81003 38.06794 23052 ft 425 kts 52°
2026-05-05 18:07 -7.79152 38.09128 22490 ft 421 kts 52°
2026-05-05 18:08 -7.77353 38.11394 21955 ft 417 kts 52°
2026-05-05 18:08 -7.75523 38.13700 21422 ft 413 kts 52°
2026-05-05 18:08 -7.73738 38.15947 20897 ft 410 kts 52°
2026-05-05 18:08 -7.71958 38.18189 20390 ft 407 kts 52°
2026-05-05 18:09 -7.70198 38.20404 19885 ft 404 kts 52°
2026-05-05 18:09 -7.68454 38.22600 19382 ft 401 kts 52°
2026-05-05 18:09 -7.66716 38.24788 18857 ft 400 kts 51°
2026-05-05 18:09 -7.64984 38.26968 18348 ft 398 kts 51°
2026-05-05 18:10 -7.63263 38.29134 17779 ft 396 kts 51°
2026-05-05 18:10 -7.61539 38.31303 17254 ft 393 kts 51°
2026-05-05 18:10 -7.59840 38.33441 16742 ft 390 kts 51°
2026-05-05 18:10 -7.58153 38.35562 16242 ft 387 kts 51°
2026-05-05 18:11 -7.56479 38.37668 15750 ft 385 kts 51°
2026-05-05 18:11 -7.54804 38.39774 15260 ft 382 kts 51°
2026-05-05 18:11 -7.53149 38.41854 14778 ft 380 kts 51°
2026-05-05 18:11 -7.51489 38.43942 14260 ft 377 kts 51°
2026-05-05 18:12 -7.49872 38.45974 13798 ft 366 kts 51°
2026-05-05 18:12 -7.48320 38.47926 13254 ft 357 kts 51°
2026-05-05 18:12 -7.46791 38.49846 12788 ft 346 kts 51°
2026-05-05 18:12 -7.45304 38.51715 12343 ft 338 kts 51°
2026-05-05 18:13 -7.43848 38.53543 11909 ft 331 kts 51°
2026-05-05 18:13 -7.42418 38.55340 11492 ft 326 kts 51°
2026-05-05 18:13 -7.40994 38.57129 11083 ft 331 kts 52°
2026-05-05 18:13 -7.39526 38.58972 10858 ft 340 kts 52°
2026-05-05 18:14 -7.38069 38.60802 10655 ft 329 kts 52°
2026-05-05 18:14 -7.36682 38.62542 10538 ft 309 kts 52°
2026-05-05 18:14 -7.35373 38.64184 10398 ft 292 kts 52°
2026-05-05 18:14 -7.34134 38.65739 10267 ft 278 kts 52°
2026-05-05 18:15 -7.32944 38.67232 10162 ft 269 kts 52°
2026-05-05 18:15 -7.31781 38.68693 10049 ft 263 kts 52°
2026-05-05 18:15 -7.30629 38.70139 9942 ft 270 kts 52°
2026-05-05 18:15 -7.29437 38.71637 9586 ft 276 kts 52°
2026-05-05 18:16 -7.28253 38.73123 9327 ft 267 kts 52°
2026-05-05 18:16 -7.27106 38.74561 9022 ft 260 kts 52°
2026-05-05 18:16 -7.25994 38.75955 8758 ft 253 kts 52°
2026-05-05 18:16 -7.24886 38.77346 8496 ft 253 kts 52°
2026-05-05 18:17 -7.23799 38.78710 8247 ft 255 kts 52°
2026-05-05 18:17 -7.22663 38.80137 7993 ft 268 kts 52°
2026-05-05 18:17 -7.21476 38.81626 7673 ft 274 kts 52°
2026-05-05 18:17 -7.20296 38.83106 7388 ft 267 kts 52°
2026-05-05 18:18 -7.19149 38.84542 7124 ft 260 kts 52°
2026-05-05 18:18 -7.18030 38.85945 6833 ft 254 kts 52°
2026-05-05 18:18 -7.16931 38.87322 6572 ft 251 kts 52°
2026-05-05 18:18 -7.15829 38.88705 6308 ft 257 kts 52°
2026-05-05 18:19 -7.14690 38.90133 6016 ft 267 kts 52°
2026-05-05 18:19 -7.13511 38.91612 5740 ft 272 kts 52°
2026-05-05 18:19 -7.12323 38.93100 5401 ft 274 kts 52°
2026-05-05 18:19 -7.11133 38.94592 5123 ft 273 kts 53°
2026-05-05 18:20 -7.09946 38.96079 4842 ft 272 kts 53°
2026-05-05 18:20 -7.09161 38.97063 4690 ft 271 kts 53°
2026-05-05 18:20 -7.07615 38.98998 4534 ft 261 kts 53°
2026-05-05 18:20 -7.06492 39.00405 4370 ft 251 kts 53°
2026-05-05 18:21 -7.05432 39.01732 4290 ft 236 kts 53°
2026-05-05 18:21 -7.04426 39.02992 4156 ft 228 kts 53°
2026-05-05 18:21 -7.03430 39.04240 3930 ft 230 kts 53°
2026-05-05 18:21 -7.02421 39.05474 3707 ft 224 kts 50°
2026-05-05 18:22 -7.01400 39.06573 3652 ft 207 kts 48°
2026-05-05 18:22 -7.00727 39.07260 3439 ft 210 kts 47°
2026-05-05 18:22 -6.99718 39.08276 3250 ft 198 kts 47°
2026-05-05 18:22 -6.98756 39.09242 2949 ft 189 kts 48°
2026-05-05 18:23 -6.97885 39.10117 2706 ft 170 kts 49°
2026-05-05 18:23 -6.97097 39.10911 2555 ft 159 kts 49°
2026-05-05 18:23 -6.96317 39.11699 2338 ft 156 kts 49°
2026-05-05 18:23 -6.95546 39.12476 2116 ft 157 kts 49°
2026-05-05 18:24 -6.94778 39.13249 1924 ft 156 kts 49°
2026-05-05 18:24 -6.94013 39.14020 1724 ft 155 kts 49°
2026-05-05 18:24 -6.93249 39.14789 1525 ft 155 kts 49°
2026-05-05 18:24 -6.92488 39.15556 1318 ft 154 kts 49°
2026-05-05 18:25 -6.91743 39.16307 1123 ft 153 kts 49°
2026-05-05 18:25 -6.91244 39.16809 1008 ft 153 kts 48°
2026-05-05 18:25 -6.90244 39.17815 754 ft 151 kts 47°
2026-05-05 18:25 -6.89503 39.18561 567 ft 151 kts 46°
2026-05-05 18:26 -6.88763 39.19312 376 ft 151 kts 46°
2026-05-05 18:26 -6.88050 39.20022 187 ft 133 kts 44°
2026-05-05 18:26 -6.87611 39.20458 180 ft 20 kts 45°
2026-05-05 18:26 -6.87498 39.20474 180 ft 18 kts 344°
2026-05-05 18:27 -6.87479 39.20469 180 ft 0 kts 344°